Other Surface Observations
Issued by NWS

Home | Current Version | Previous Version | Text Only | Print | Product List | Glossary On
Versions: 1 2 3 4 5 6 7 8 9 10 11 12 13 14 15 16 17 18 19 20 21 22 23 24 25 26 27 28 29 30 31 32 33 34 35 36 37 38 39 40 41 42 43 44 45 46 47 48 49 50
980
SXUS52 KTAE 201306
OSOTAE
OSOTAE
North Florida/South Alabama/Southwest Georgia Weather Roundup
National Weather Service Tallahassee Florida
900 AM EDT THU JUL 20 2017

Note: "fair" indicates few or no clouds below 12,000 feet with no
significant weather and/or obstructions to visibility.

!FLZ017-115-028-034-025-201400
...North Florida...

CITY           SKY/WX    TMP DP  RH WIND       PRES   REMARKS
TALLAHASSEE    MOSUNNY   81  76  84 CALM      30.09R
APALACHICOLA   SUNNY     83  81  94 N3        30.10R HX  97
PERRY          SUNNY     80  76  87 SW3       30.10S
CROSS CITY     SUNNY     79  73  83 CALM      30.14S
JACKSONVILLE   MOSUNNY   79  74  84 W3        30.09R
$$

!FLZ112-006-005-002-011-201400
...Florida Panhandle...

CITY           SKY/WX    TMP DP  RH WIND       PRES   REMARKS
MARIANNA       SUNNY     82  78  88 CALM      30.09R HX  91
BONIFAY        NOT AVBL
PANAMA CITY NW FAIR      81  76  84 NW3       30.09R
TYNDALL AFB    PTSUNNY   82  79  92 CALM      30.09S HX  91
TYND DRONE APT PTSUNNY   82  79  91 N3        30.09S HX  92
DE FUNIAK SPR  FAIR      81  76  84 N5        30.11S
EGLIN AFB      MOSUNNY   82  76  83 NW7       30.09R
DESTIN         SUNNY     85  76  74 NW8       30.09S HX  94
HURLBURT       SUNNY     82  82  98 NW7       30.08R HX  96
CRESTVIEW      SUNNY     82  76  81 N3        30.11R
PENSACOLA      SUNNY     85  76  74 NW8       30.10R HX  94
$$

!ALZ063-066-201400
...South Alabama...

CITY           SKY/WX    TMP DP  RH WIND       PRES   REMARKS
DOTHAN         SUNNY     81  77  88 N5        30.14R
OZARK CAIRNS   SUNNY     80  76  86 CALM      30.10R
FT RUCKER HELI SUNNY     81  76  85 N3        30.10R
RUCKER HELI 3  FAIR      81  75  84 N5        30.10S
RUCKER HELI 2  FAIR      81  76  84 N5        30.10R
FLORALA APT    SUNNY     81  74  79 VRB5      30.12R
ANDALUSIA      SUNNY     84  76  76 NW6       30.11R HX  93
TROY           SUNNY     80  77  90 CALM      30.12R
EUFALA         FAIR      82  76  81 CALM      30.09S
MOBILE         MOSUNNY   82  77  84 NW3       30.13R HX  90
$$

!GAZ120>161-201400
...Southwest and South Central Georgia...

CITY           SKY/WX    TMP DP  RH WIND       PRES   REMARKS
THOMASVILLE    FAIR      81  79  94 CALM      30.11R
BAINBRIDGE     SUNNY     82  81  94 CALM      30.10R HX  95
MOODY AFB      SUNNY     80  74  82 CALM      30.08R
VALDOSTA       SUNNY     79  74  84 S5        30.09S
MOULTRIE       SUNNY     81  75  83 CALM      30.10S
BLAKELY        SUNNY     82  73  74 CALM      30.10S
ALBANY         SUNNY     82  75  79 CALM      30.12R
TIFTON         FAIR      80  78  94 CALM      30.09S
FITZGERALD     FAIR      83  78  85 CALM      30.12R HX  92
CORDELE        FAIR      85  76  74 W3        30.11S HX  94
AMERICUS       FAIR      81  73  78 CALM      30.13R
HOMERVILLE     FAIR      81  75  83 SW3       30.10S
$$

!GMZ750-755-770-775-201400
...Coastal and Buoy Obs...

STATION/POSITION TIME  TEMP    WIND        PRES    VSBY  WAVE
                       AIR SEA DIR/SP/G                  HT/PER
                 (UTC) (F)     (DEG/KT/KT) (MB)    (MI)  (FT/S)
KEATON BEACH     1300   82     260/  1/  2 1018.9R
CEDAR KEY        1200   80      70/  5/  5 1019.3R
C TOWER          NOT AVBL
APALACHICOLA BUO 1150   84 87  330/  4/  6 1018.6          1
PANAMA CITY BUOY 1150   83 84  310/  6/  8 1018.9          1
MOBILE BUOY      1240   84 84  320/  6/  8 1019.5R
ORANGE BCH AL BU 1150   82 86  330/ 10/ 10 1018.5          1/ 2
$$




USA.gov is the U.S. government's official web portal to all federal, state and local government web resources and services.